Weather Roundup
Issued by NWS

Home | Current Version | Previous Version | Text Only | Print | Product List | Glossary On
Versions: 1 2 3 4 5 6 7 8 9 10 11 12 13 14 15 16 17 18 19 20 21 22 23 24 25 26 27 28 29 30 31 32 33 34 35 36 37 38 39 40 41 42 43 44 45 46 47 48 49 50
000
NZUS93 KARX 210759
HRRWXR

CURRENT HOURLY OBSERVATIONS ACROSS
MUCH OF THE UPPER MISSISSIPPI VALLEY
NATIONAL WEATHER SERVICE LA CROSSE WI
300 AM CDT THU AUG 21 2014


...SOUTHEAST MINNESOTA...


CITY           SKY/WX    TMP DP  RH WIND       PRES   REMARKS
ROCHESTER      CLOUDY    69  65  86 SE9       29.88F
ROCHESTER/MAYO FAIR      70  66  89 E8        29.87F
WINONA         CLOUDY    70  64  83 SE6       29.87F
AUSTIN         CLOUDY    70  66  88 SE7       29.86F
ALBERT LEA     CLOUDY    70  66  88 SE13      29.82F
DODGE CENTER   CLOUDY    70  66  88 SE9       29.86F
PRESTON        MOCLDY    69  67  96 S7        29.89F
OWATONNA       CLOUDY    72  64  78 SE10      29.82F
FARIBAULT      CLOUDY    75  63  64 SE10G17   29.81F
$$

...ELSEWHERE IN MINNESOTA...


CITY           SKY/WX    TMP DP  RH WIND       PRES   REMARKS
MINNEAPOLIS    CLOUDY    71  66  84 SE12      29.81F
INTNL FALLS    NOT AVBL
DULUTH         NOT AVBL
RED WING       PTCLDY    72  64  78 E7        29.83F
REDWOOD FALLS  LGT RAIN  70  69  97 SE16      29.73F
MANKATO        CLOUDY    72  64  78 SE15      29.79F
WORTHINGTON    MOCLDY    73  14  10 S9G18     29.73F
FAIRMONT       CLOUDY    72  64  78 MISG      29.78F
$$

...SOUTHWEST WISCONSIN...


CITY           SKY/WX    TMP DP  RH WIND       PRES   REMARKS
LA CROSSE      CLOUDY    72  66  81 E6        29.89S
PRAIRIE DU CHI CLOUDY    70  66  86 E5        29.89F
BOSCOBEL       CLOUDY    70  67  90 E5        29.90F
LONE ROCK      NOT AVBL
PLATTEVILLE    MOCLDY    69  67  93 NW6       29.92F
FORT MC COY    MOCLDY    67  64  90 CALM      29.91F
VIROQUA        CLOUDY    68  68 100 S6        29.93S
WIS DELLS      MOCLDY    65  63  91 E5        29.92F FOG
$$

...ELSEWHERE IN WISCONSIN...


CITY           SKY/WX    TMP DP  RH WIND       PRES   REMARKS
MILWAUKEE      PTCLDY    66  62  87 NE5       29.94F
MADISON        CLOUDY    67  65  93 E3        29.92F
GREEN BAY      MOCLDY    60  60 100 CALM      29.96F FOG
EAU CLAIRE     NOT AVBL
BLACK RVR FLS  FAIR      64  64 100 CALM      29.90F
MEDFORD        CLOUDY    61  60  97 SE5       29.95F
WAUSAU         MOCLDY    60  59  96 SE5       29.94F
WIS RAPIDS     MOCLDY    64  62  93 E3        29.94F
MARSHFIELD     MOCLDY    63  60  90 E6        29.93F
RICE LAKE      CLOUDY    64  61  89 E5        29.92S
$$

...NORTHEAST IOWA...


CITY           SKY/WX    TMP DP  RH WIND       PRES   REMARKS
WATERLOO       MOCLDY    70  68  93 SE7       29.85F
DUBUQUE        CLOUDY    70  67  90 S7        29.91F
DECORAH        CLOUDY    70  66  88 SE6       29.89F
MASON CITY     CLOUDY    70  69  97 SE12      29.85F
CHARLES CITY   CLOUDY    70  68  94 SE9       29.88F
OELWEIN        MOCLDY    70  70 100 SE8       29.90S
$$

...ELSEWHERE IN IOWA...


CITY           SKY/WX    TMP DP  RH WIND       PRES   REMARKS
DES MOINES     PTCLDY    77  72  84 S7        29.82F
IOWA CITY      CLOUDY    71  71 100 SE3       29.89F
FORT DODGE     MOCLDY    73  72  94 S10       29.80F
MARSHALLTOWN   PTCLDY    72  71  97 SE7       29.84F FOG
CEDAR RAPIDS   CLOUDY    69  69 100 SE6       29.88F FOG
$$

...NORTHERN ILLINOIS...


CITY           SKY/WX    TMP DP  RH WIND       PRES   REMARKS
CHICAGO-OHARE  CLOUDY    72  65  78 S10       29.95S
DUPAGE         MOCLDY    71  67  87 S6        29.95S
CHICAGO-MIDWAY LGT RAIN  73  69  87 SW7       29.96R FOG
MOLINE         PTCLDY    70  68  93 E7        29.90F
ROCKFORD       LGT RAIN  71  67  87 CALM      29.95F
STERLING       CLOUDY    72  66  83 SE6       29.93F
PEORIA         MOCLDY    73  69  87 S3        29.94S
$$

NOTE: "FAIR" INDICATES FEW OR NO CLOUDS BELOW 12,000 FEET WITH NO
SIGNIFICANT WEATHER AND/OR OBSTRUCTIONS TO VISIBILITY. WIND
SPEEDS ARE IN MILES-PER-HOUR.



USA.gov is the U.S. government's official web portal to all federal, state and local government web resources and services.